Simultaneous Nadir Overpasses (SNOs) Predictions

Prediction of SNOs between METOP-C and LANDSAT-8 Satellite Orbit:

Table of predicted SNOs for the next 14.0 days since TLE Epoch: 2/1/2025
Index Date (METOP-C) Time (METOP-C) Lat,Lon (METOP-C) SZA (METOP-C ) Date (LANDSAT-8) Time (LANDSAT-8) Lat,Lon (LANDSAT-8) SZA (LANDSAT-8 ) Distance(km) Time Diff (sec)
1 02/02/2025 12:08:38 -81.10,-143.15 80.69 02/02/2025 12:09:38 -81.10,-143.05 80.66 1.75 60
2 02/02/2025 12:59:17 81.13, 24.98 99.40 02/02/2025 12:59:03 81.13, 25.04 99.40 1.00 14
3 02/05/2025 07:42:58 -81.11, -76.38 81.49 02/05/2025 07:43:52 -81.10, -76.57 81.49 3.31 54
4 02/05/2025 08:33:38 81.13, 91.34 98.55 02/05/2025 08:33:17 81.13, 91.49 98.56 2.71 21
5 02/08/2025 03:17:20 -81.11, -10.11 82.38 02/08/2025 03:18:06 -81.11, -10.05 82.36 1.01 46
6 02/08/2025 04:07:59 81.13, 157.95 97.70 02/08/2025 04:07:31 81.13, 157.98 97.69 0.55 28
7 02/10/2025 22:51:41 -81.11, 56.43 83.28 02/10/2025 22:52:19 -81.11, 56.50 83.25 1.30 38
8 02/10/2025 23:42:20 81.14,-135.56 96.80 02/10/2025 23:41:44 81.14,-135.50 96.79 1.07 36
9 02/13/2025 18:26:00 -81.13, 123.22 84.17 02/13/2025 18:26:30 -81.12, 123.08 84.17 2.34 30



Historial Predications of SNOs between METOP-C and LANDSAT-8
